Regional Weather Roundup
Issued by NWS

Home | Current Version | Previous Version | Graphics & Text | Print | Product List | Glossary Off
Versions: 1 2 3 4 5 6 7 8 9 10 11 12 13 14 15 16 17 18 19 20 21 22 23 24 25 26 27 28 29 30 31 32 33 34 35 36 37 38 39 40 41 42 43 44 45 46 47 48 49 50

000
ASUS43 KMKX 270700
RWRWI

WISCONSIN REGIONAL WEATHER ROUNDUP
NATIONAL WEATHER SERVICE MILWAUKEE/SULLIVAN WI
200 AM CDT TUE JUN 27 2017

NOTE: "FAIR" INDICATES FEW OR NO CLOUDS BELOW 12,000 FEET WITH NO
SIGNIFICANT WEATHER AND/OR OBSTRUCTIONS TO VISIBILITY.

WIZ001-002-006>008-014>016-023>028-270800-
NORTHWEST WISCONSIN

CITY           SKY/WX    TMP DP  RH WIND       PRES   REMARKS
SUPERIOR ARPT  NOT AVBL
ASHLAND        PTCLDY    53  48  83 SW10      30.03F
HAYWARD        MOCLDY    53  49  86 SW5       30.07S
SIREN          CLEAR     46  45  94 CALM      30.08S
CUMBERLAND     CLEAR     50  46  87 CALM      30.08F
RICE LAKE      CLEAR     49  48  97 CALM      30.09F FOG
CHETEK         PTCLDY    48  48 100 CALM      30.08F
LADYSMITH      LGT RAIN  53  49  87 CALM      30.09F
EAU CLAIRE     NOT AVBL
MENOMONIE      PTCLDY    52  49  89 SW5       30.09F
NEW RICHMOND   CLEAR     51  48  89 SW5       30.10F
OSCEOLA        CLEAR     49  49 100 CALM      30.12F
$$

WIZ003>005-009-010-017-018-270800-
NORTH CENTRAL WISCONSIN

CITY           SKY/WX    TMP DP  RH WIND       PRES   REMARKS
MANITOWISH WTR FOG       43  43 100 CALM      30.04F VSB 3/4
ARBOR VITAE    CLEAR     52  50  93 CALM      30.04F
WOODRUFF       CLEAR     52  50  93 CALM      30.04F
RHINELANDER    MOCLDY    45  45 100 W5        30.05F
EAGLE RIVER    PTCLDY    46  46 100 CALM      30.03F
LAND O LAKES   MOCLDY    46  46 100 CALM      30.04F
PHILLIPS       CLOUDY    50  50  98 CALM      30.05F
TOMAHAWK       NOT AVBL
MEDFORD        MOCLDY    49  46  87 W5        30.08S
MERRILL        CLEAR     41  41 100 CALM      30.07S
$$

WIZ029-030-035-036-043>047-270800-
CENTRAL WISCONSIN

CITY           SKY/WX    TMP DP  RH WIND       PRES   REMARKS
WAUSAU         PTCLDY    50  47  89 NW6       30.05F
MOSINEE        MOCLDY    50  46  87 W5        30.08F
MARSHFIELD     MOCLDY    50  45  83 W5        30.07F
STEVENS POINT  CLEAR     45  45  99 CALM      30.08S
WAUPACA        PTCLDY    53  49  86 W5        30.07S
WAUTOMA        PTCLDY    47  46  97 CALM      30.08F
WISC RAPIDS    CLEAR     49  46  90 W3        30.09F
CAMP DOUGLAS   NOT AVBL
$$

WIZ011>013-019>022-031-037>040-048>050-270800-
NORTHEAST WISCONSIN

CITY           SKY/WX    TMP DP  RH WIND       PRES   REMARKS
ANTIGO         CLEAR     46  45  99 W5        30.07S
SHAWANO        CLEAR     53  48  85 W6        30.04F
OCONTO         CLEAR     49  47  95 W3        30.02F
STURGEON BAY     N/A     53  51  93 SW6         N/A
GREEN BAY      CLEAR     51  50  96 W7        30.04S
MANITOWOC      NOT AVBL
APPLETON       CLEAR     48  45  87 W8        30.04F
CLINTONVILLE   CLEAR     50  45  81 W3        30.05S
OSHKOSH        CLEAR     52  46  80 W6        30.06S
$$

WIZ032>034-041-042-053>061-270800-
SOUTHWEST WISCONSIN

CITY           SKY/WX    TMP DP  RH WIND       PRES   REMARKS
LA CROSSE      CLEAR     57  50  77 SE6       30.10F
SPARTA         CLEAR     43  43 100 CALM      30.12S
VIROQUA        CLEAR     53  47  81 SW5       30.12S
BOSCOBEL       CLEAR     49  47  93 CALM      30.13S
PRAIRIE DU CHI PTCLDY    49  46  90 CALM      30.13S
PLATTEVILLE    CLEAR     53  47  82 W5        30.13S
$$

WIZ056-057-062-063-064-067-068-270800-
SOUTH CENTRAL WISCONSIN

CITY           SKY/WX    TMP DP  RH WIND       PRES   REMARKS
REEDSBURG      CLEAR     49  49 100 CALM      30.10S
BARABOO/DELLS  CLEAR     47  45  93 CALM      30.10S
LONE ROCK      CLEAR     49  47  93 CALM      30.11F
MINERAL POINT  CLEAR     54  48  82 CALM      30.12S
MADISON        CLEAR     52  47  83 W6        30.09S
MIDDLETON      CLEAR     49  46  87 CALM      30.10S
WATERTOWN      NOT AVBL
MONROE         CLEAR     54  45  71 W10       30.11S
JANESVILLE     CLEAR     52  52 100 CALM      30.10S
$$

WIZ051-052-058>065-066-070>072-270800-
SOUTHEAST WISCONSIN

CITY           SKY/WX    TMP DP  RH WIND       PRES   REMARKS
MILWAUKEE      MOCLDY    56  49  77 W3        30.08F
WAUKESHA       CLEAR     46  45  93 CALM      30.10S
MILWAUKEE/TIMM CLEAR     50  45  81 CALM      30.09S
RACINE         CLEAR     52  46  80 W5        30.10S
KENOSHA        CLEAR     48  45  89 W5        30.09F
FOND DU LAC    CLEAR     52  44  74 SW7       30.07S
SHEBOYGAN      CLEAR     47  47 100 SW3       30.06S
WEST BEND      CLEAR     46  46 100 CALM      30.07F
JUNEAU         CLEAR     47  45  93 CALM      30.09S
$$

LSZ147-162-270800-
LAKE SUPERIOR

STATION/POSITION TIME  TEMP    WIND        PRES    WAVE
                       AIR SEA DIR/SP/G            HT/PER
                 (UTC) (F)     (DEG/KT/KT) (MB)    (FT/S)
W MID LAKE BUOY  0550   45 39  280/  8/  8 1016.1S   1/ 4
DEVILS ISLAND    0600   53     250/ 11/ 12 1016.8S
SAXON HARBOR     0640   58     200/  7/ 10 1016.3F
$$

LMZ867-665-643>646-270800-
LAKE MICHIGAN

STATION/POSITION TIME  TEMP    WIND        PRES    WAVE
                       AIR SEA DIR/SP/G            HT/PER
                 (UTC) (F)     (DEG/KT/KT) (MB)    (FT/S)
CHAMBERS ISLAND  0640   57     210/  4/  9 1015.9S
S GREEN BAY BUOY 0630   58     260/ 14/ 17 1016.2F
N MID LAKE BUOY  0550   55 55  230/  6/  6 1016.5S   1
NORTHPORT PIER   0630   56     270/  3/  5 1015.9S
KEWAUNEE LAKESHO 0630   51     310/  4/  5 1016.5F
SHEBOYGAN LAKESH 0600   54     240/  5/  6 1017.8F
PORT WASHINGTON  0640   55     270/  3/  5 1019.0S
ATWATER BUOY     0509   58 58  280/  8/  8 1018.6R
MILWAUKEE LAKESH 0630   57     280/  4/  5   N/A
S MID LAKE BUOY  0550   58 61  360/ 12/ 14 1018.4R   3/ 5
KENOSHA   LAKESH 0600   57     260/  7/  8 1019.0
$$

TC  - TEMPERATURE IN CELSIUS
VSB - VISIBILITY IN STATUTE MILES
WCI - WIND CHILL INDEX
HX  - HEAT INDEX





USA.gov is the U.S. government's official web portal to all federal, state and local government web resources and services.